Location: Braden Valley Church
(38.0012°N, 88.6106°W)
Time: 03:43:28
(UTC+00:00)

DELTA 2 R/B (1) - Pass Details

Date: 08 December 2021
Orbit: 790 x 802 km, 39.6° (Epoch: 21 January)

Event Time Altitude Azimuth Distance (km) Brightness Sun altitude
Exits shadow 12:12:06 11° 282° (WNW) 2,296 5.3 -9.0°
Maximum altitude 12:17:30 89° 201° (SSW) 793 3.6 -8.1°
Drops below altitude 10° 12:23:04 10° 105° (ESE) 2,347 7.7 -7.0°
Sets 12:25:32 0° 105° (ESE) 3,277 9.1 -6.6°
